Wind_Speed
41 43 44 44 45 45 46 47 48 49 49 49 50 50 49 48 47 45 42 39 38 38 38 36 35 34 33 33 32 31 31 32 33 33 32 32 31 31 32 32 32 34 36
41 42 43 44 44 45 45 46 48 50 52 52 53 53 52 51 50 49 47 43 41 40 40 39 38 38 37 36 35 35 34 34 34 35 35 35 35 34 33 32 31 31 33
45 46 47 47 47 46 47 48 48 50 51 52 53 54 54 53 51 50 49 47 44 42 41 41 42 41 41 40 39 38 37 37 37 37 37 37 37 38 37 36 33 32 34
51 51 51 50 49 49 50 50 49 50 50 51 52 54 54 54 54 52 51 49 47 45 43 43 44 44 44 44 43 41 40 40 40 40 40 39 39 39 40 40 38 36 35
55 55 54 52 51 51 51 51 50 51 51 52 52 54 55 56 55 53 51 50 48 46 45 44 45 45 45 45 45 44 43 43 43 43 43 42 42 41 41 42 41 40 39
55 56 56 54 52 51 49 50 51 51 52 53 53 54 56 57 57 55 53 51 50 48 46 46 46 47 47 46 46 46 46 46 46 46 46 45 44 44 43 43 43 43 42
54 54 53 52 51 50 50 50 52 53 53 53 54 55 56 57 57 56 54 53 52 50 49 48 47 48 48 48 48 49 49 50 49 50 50 50 49 48 46 45 44 44 44
54 53 52 50 50 50 50 51 52 53 54 54 54 55 56 58 57 57 56 55 53 52 50 49 48 48 49 50 50 50 51 51 51 52 53 54 54 53 51 50 48 46 46
54 54 53 51 50 50 51 52 53 53 53 53 52 52 52 53 54 54 53 52 51 51 50 50 50 51 51 51 51 52 52 53 52 52 54 55 57 58 57 55 53 51 49
54 55 55 54 52 52 53 53 53 54 54 52 51 51 52 52 52 52 51 50 51 52 52 53 54 54 53 53 53 54 54 55 55 55 55 57 59 61 61 60 59 56 55
56 54 53 52 51 51 52 53 53 55 56 54 53 52 51 51 51 51 51 51 52 53 54 54 55 55 55 55 56 58 59 60 61 61 60 60 61 63 64 64 64 62 60
55 52 52 51 51 51 51 52 53 53 55 55 54 53 51 51 51 51 50 49 50 51 53 54 55 56 57 58 59 60 62 63 64 66 67 67 66 67 68 68 68 67 65
51 51 51 50 50 50 50 50 51 52 54 54 53 52 52 51 50 49 48 47 48 50 52 53 54 55 55 55 56 56 57 57 58 61 64 68 72 74 74 74 73 71 69
49 49 48 47 47 49 49 50 51 50 51 51 50 49 49 48 47 46 46 47 47 48 47 48 48 48 47 48 50 51 53 54 56 58 61 66 70 75 78 79 79 76 74
47 47 46 44 45 48 50 52 51 51 49 48 47 46 45 44 44 45 46 47 47 46 44 44 44 43 43 44 46 49 51 53 55 58 62 67 73 78 80 82 83 81 78
45 45 43 41 41 43 46 48 49 49 49 47 45 43 42 42 42 42 43 44 45 44 44 43 42 42 42 43 44 47 49 50 53 57 62 66 72 77 83 85 86 85 82
45 44 43 43 43 43 43 44 45 46 46 45 43 42 41 41 40 40 41 42 43 44 43 42 41 40 40 42 43 44 45 46 48 50 55 59 61 65 72 80 83 83 81
42 42 42 43 43 42 41 41 41 41 41 40 40 41 41 41 40 39 39 40 40 41 42 42 40 38 39 40 41 42 42 42 41 43 48 50 52 55 61 69 76 79 77
40 42 43 41 39 37 36 37 38 36 36 38 38 38 38 38 37 37 36 37 38 39 41 42 40 38 38 39 40 40 41 39 37 37 39 43 48 51 54 60 66 74 76
40 42 42 38 35 34 34 35 36 36 36 36 37 37 37 37 36 36 36 36 37 39 41 41 41 39 39 40 40 40 40 39 37 35 35 37 44 49 53 56 59 65 71
39 37 39 38 36 34 35 35 35 35 35 35 36 38 38 38 37 37 38 37 38 40 41 41 41 41 41 41 41 41 40 38 37 35 35 36 39 46 53 57 59 61 65
37 37 38 38 35 34 34 35 34 33 33 34 36 37 39 39 39 39 39 39 40 41 43 43 43 44 43 42 42 42 40 37 36 36 36 36 38 42 47 55 60 62 63
34 35 35 34 33 33 32 31 31 31 32 34 35 37 39 41 42 42 42 42 42 43 45 46 46 46 45 44 44 43 41 37 35 36 37 35 38 40 42 48 56 61 61
31 32 32 32 32 31 30 29 30 31 32 33 35 37 40 42 43 43 43 44 45 46 47 48 47 47 47 46 45 44 42 38 35 35 36 34 35 37 38 43 49 56 59
31 32 31 30 30 30 31 32 34 35 36 36 37 38 40 41 42 44 45 46 46 47 48 49 48 48 49 49 47 45 43 39 35 34 35 34 32 32 33 38 44 51 55
31 32 31 30 30 30 32 34 36 38 39 41 42 42 43 43 44 45 47 47 47 48 49 50 50 49 50 50 49 47 45 42 37 34 34 34 31 29 28 32 40 49 53
Wind_Direction
272 270 269 269 270 271 271 271 271 270 268 267 267 267 267 267 267 266 263 260 259 261 262 262 258 255 252 248 246 247 248 249 251 252 253 253 251 251 251 251 252 252 251
279 277 275 274 273 272 271 271 272 272 271 270 268 267 266 266 266 265 263 259 256 256 258 258 256 253 250 247 244 244 245 245 246 248 250 251 250 249 250 252 253 254 251
283 281 279 278 278 278 276 272 270 270 270 270 268 267 266 264 262 261 260 258 256 253 252 252 251 250 248 246 244 244 243 243 244 244 246 249 250 250 250 252 252 253 253
284 283 281 280 280 280 277 274 271 269 268 267 265 265 264 262 260 258 257 256 255 252 249 248 248 248 247 246 245 244 244 244 245 245 245 247 249 250 251 252 253 253 253
281 281 280 279 279 278 275 274 272 271 269 266 263 261 260 258 257 255 254 253 253 250 248 246 246 247 247 247 246 245 244 243 244 246 246 247 248 249 250 252 252 253 254
277 278 278 277 277 275 273 272 271 270 269 267 263 260 257 255 254 254 253 252 250 248 247 246 246 246 247 247 247 245 243 242 242 244 246 246 247 248 249 250 251 252 253
277 276 275 275 275 273 271 270 269 267 266 264 262 259 256 253 252 252 252 250 250 249 248 247 247 247 247 248 248 247 246 245 244 244 246 247 247 247 248 249 250 250 252
278 276 274 273 273 272 269 266 264 263 263 261 259 256 254 253 252 251 250 249 249 249 249 247 247 248 249 250 250 250 250 249 247 245 246 247 248 247 247 247 248 249 250
276 275 273 271 271 268 265 263 261 260 259 257 255 253 251 251 251 250 248 248 248 249 249 249 249 250 251 252 253 254 254 253 251 248 247 248 249 249 247 247 247 246 247
272 271 270 270 269 265 261 258 257 256 254 252 251 251 251 250 249 248 247 248 249 252 253 254 255 255 255 255 255 256 256 257 255 253 251 250 250 250 249 248 247 246 246
270 270 269 267 266 263 260 257 254 253 251 249 250 250 249 248 247 248 248 249 251 254 256 257 257 258 257 258 258 258 258 258 258 256 254 252 251 251 250 248 247 246 246
269 270 267 265 263 261 258 256 253 251 251 250 249 248 247 247 248 249 250 252 255 256 258 260 261 262 262 262 262 262 261 260 259 258 257 254 252 251 250 249 247 246 245
267 267 266 265 264 262 260 256 254 252 249 248 248 247 247 247 248 249 251 254 257 260 261 263 263 263 263 263 263 262 261 260 260 260 260 258 255 251 249 248 247 246 244
267 268 268 268 269 268 264 259 255 253 249 246 244 244 245 247 249 251 254 258 260 260 260 261 261 261 262 262 261 260 260 261 262 263 264 263 260 256 251 247 246 244 242
268 271 272 273 273 271 265 260 257 252 247 243 240 241 244 247 251 254 257 258 259 259 257 257 259 261 263 264 264 263 264 264 265 266 268 267 263 258 253 249 245 243 242
271 272 272 272 273 271 267 263 259 250 243 239 237 239 243 248 252 256 257 258 257 257 256 256 259 262 265 268 269 269 269 269 270 272 274 274 267 258 251 247 244 241 240
268 270 272 276 276 275 270 264 257 247 239 236 235 238 244 248 253 256 258 259 258 257 257 257 259 262 266 270 272 273 273 276 280 284 286 281 269 258 249 243 240 238 237
266 268 274 279 278 276 271 262 251 242 236 234 235 239 244 248 253 257 261 262 261 261 259 258 259 261 265 269 272 274 277 282 288 293 291 281 268 258 250 243 239 236 234
266 271 278 280 276 273 267 258 245 237 234 233 235 240 245 249 254 258 262 263 262 261 260 259 260 260 263 267 269 273 277 282 289 296 295 281 266 257 250 245 241 237 233
270 275 277 274 269 267 264 257 245 238 235 235 238 242 247 252 257 260 262 263 262 261 261 261 261 260 261 264 268 271 275 279 286 292 295 282 266 257 251 246 242 239 236
272 272 269 267 264 261 259 255 249 243 241 240 242 246 251 256 259 261 262 263 264 263 263 262 261 260 259 262 266 270 274 278 283 289 292 286 273 261 252 246 241 238 236
264 262 262 265 261 255 253 252 251 248 246 246 248 252 256 259 260 261 263 265 267 267 266 264 262 260 259 260 264 269 273 276 280 285 290 291 283 269 257 247 241 238 235
256 257 261 262 257 251 248 250 255 256 256 255 255 257 258 259 259 261 263 266 268 269 269 266 264 261 260 260 262 265 269 273 277 281 285 290 287 277 264 252 243 237 233
250 254 257 256 251 246 245 249 255 260 263 264 263 261 260 260 260 262 263 265 267 268 268 266 264 262 260 260 261 262 265 269 273 279 283 288 289 283 269 255 243 235 231
249 253 255 253 250 249 251 254 258 262 265 266 267 265 264 264 263 263 264 265 266 267 267 266 264 262 260 259 259 260 263 265 269 274 281 286 289 289 276 258 244 233 227
252 254 255 255 257 258 261 264 266 267 267 266 266 266 267 268 268 267 266 266 266 266 265 265 264 263 261 260 259 259 260 262 264 268 274 280 286 291 285 263 244 231 224
Height
5780 5779 5778 5778 5777 5777 5777 5777 5776 5776 5776 5777 5777 5777 5778 5778 5778 5779 5780 5782 5784 5785 5786 5787 5789 5790 5791 5792 5793 5795 5796 5798 5799 5800 5800 5801 5802 5802 5804 5805 5807 5808 5809
5769 5769 5768 5767 5766 5766 5765 5765 5765 5764 5764 5765 5765 5766 5767 5767 5768 5768 5769 5771 5773 5774 5776 5777 5779 5781 5782 5784 5785 5787 5789 5790 5791 5792 5793 5795 5796 5797 5798 5799 5801 5802 5803
5758 5757 5756 5755 5754 5754 5753 5753 5753 5752 5753 5753 5753 5753 5754 5755 5756 5757 5757 5759 5761 5763 5764 5766 5768 5769 5772 5774 5776 5778 5780 5781 5783 5784 5785 5787 5788 5790 5791 5793 5794 5796 5796
5745 5744 5742 5741 5741 5740 5739 5740 5740 5739 5740 5740 5740 5740 5741 5741 5742 5743 5745 5746 5748 5750 5752 5754 5756 5758 5760 5763 5765 5767 5770 5772 5774 5776 5777 5778 5780 5782 5784 5785 5787 5789 5790
5732 5730 5728 5727 5726 5726 5725 5725 5726 5726 5726 5727 5727 5727 5727 5727 5728 5729 5732 5733 5735 5737 5740 5742 5744 5746 5749 5751 5754 5756 5759 5762 5764 5766 5768 5770 5771 5773 5775 5777 5780 5782 5783
5716 5714 5713 5712 5711 5711 5710 5710 5711 5712 5713 5714 5714 5714 5714 5713 5714 5717 5719 5720 5722 5725 5727 5729 5732 5734 5737 5739 5742 5745 5748 5750 5753 5756 5757 5760 5762 5764 5766 5768 5771 5774 5776
5699 5698 5697 5696 5696 5695 5695 5695 5696 5697 5698 5699 5700 5700 5700 5700 5701 5704 5706 5708 5710 5712 5715 5717 5719 5722 5724 5727 5730 5732 5736 5739 5741 5744 5747 5749 5752 5754 5756 5759 5762 5765 5767
5682 5681 5680 5680 5680 5679 5679 5680 5681 5682 5683 5684 5685 5686 5687 5688 5689 5692 5694 5695 5697 5699 5702 5704 5706 5709 5711 5714 5717 5720 5723 5726 5729 5732 5735 5738 5740 5743 5746 5749 5751 5754 5758
5666 5665 5664 5664 5664 5664 5664 5664 5665 5667 5668 5670 5671 5672 5674 5675 5677 5679 5681 5683 5684 5686 5689 5692 5694 5696 5699 5702 5705 5708 5711 5714 5717 5720 5723 5726 5728 5731 5735 5737 5740 5743 5746
5651 5650 5649 5648 5648 5648 5648 5649 5650 5651 5653 5655 5657 5659 5661 5663 5665 5667 5669 5671 5673 5674 5676 5678 5681 5683 5686 5689 5692 5695 5698 5700 5703 5707 5710 5713 5715 5718 5722 5726 5728 5731 5735
5634 5634 5633 5632 5632 5632 5632 5633 5635 5637 5638 5640 5643 5645 5647 5649 5652 5654 5656 5658 5660 5662 5663 5664 5666 5669 5672 5675 5678 5681 5684 5686 5689 5692 5696 5699 5702 5705 5708 5711 5715 5719 5722
5618 5618 5618 5617 5616 5616 5617 5618 5619 5621 5624 5626 5629 5631 5634 5637 5639 5641 5643 5645 5647 5648 5649 5650 5651 5654 5657 5660 5662 5665 5667 5670 5672 5675 5678 5682 5686 5689 5692 5696 5700 5704 5709
5603 5603 5602 5602 5602 5602 5602 5603 5604 5605 5608 5611 5614 5617 5621 5624 5626 5628 5630 5632 5633 5635 5635 5636 5637 5639 5641 5644 5646 5648 5650 5652 5654 5657 5660 5663 5667 5671 5675 5679 5683 5688 5693
5588 5588 5588 5587 5587 5587 5588 5588 5588 5590 5592 5596 5599 5603 5607 5611 5613 5615 5616 5618 5620 5621 5622 5622 5623 5625 5627 5630 5632 5633 5635 5637 5638 5640 5641 5643 5645 5649 5654 5659 5664 5669 5675
5573 5573 5573 5572 5572 5572 5571 5572 5573 5575 5578 5581 5585 5590 5594 5598 5600 5602 5603 5604 5606 5608 5609 5610 5611 5612 5615 5617 5618 5619 5620 5621 5622 5623 5623 5622 5623 5625 5629 5636 5642 5649 5656
5559 5559 5559 5558 5558 5558 5557 5557 5558 5560 5563 5567 5572 5577 5581 5584 5587 5589 5590 5591 5592 5594 5596 5598 5599 5600 5601 5603 5604 5604 5605 5605 5604 5603 5601 5598 5597 5598 5602 5609 5618 5627 5635
5546 5546 5546 5545 5545 5544 5544 5544 5544 5545 5549 5554 5559 5564 5569 5572 5574 5575 5576 5577 5579 5580 5583 5585 5587 5588 5588 5588 5589 5589 5589 5588 5585 5582 5578 5575 5571 5572 5576 5583 5593 5603 5613
5533 5533 5533 5532 5531 5531 5530 5531 5531 5533 5537 5542 5547 5552 5556 5559 5561 5562 5563 5564 5565 5567 5570 5572 5574 5575 5575 5575 5575 5575 5574 5572 5568 5564 5560 5556 5554 5554 5558 5563 5572 5582 5593
5520 5521 5520 5520 5518 5518 5518 5519 5520 5523 5527 5531 5535 5539 5543 5546 5548 5549 5550 5552 5553 5555 5557 5559 5561 5563 5563 5562 5563 5562 5561 5558 5554 5550 5546 5542 5540 5541 5544 5549 5555 5564 5574
5508 5509 5508 5507 5507 5507 5507 5509 5511 5514 5517 5520 5524 5528 5531 5534 5535 5537 5539 5540 5542 5544 5545 5546 5548 5550 5550 5550 5550 5550 5548 5546 5542 5538 5534 5531 5529 5529 5532 5535 5541 5549 5558
5496 5497 5497 5496 5496 5497 5498 5499 5501 5503 5506 5510 5513 5516 5519 5521 5523 5525 5527 5529 5530 5531 5533 5533 5535 5536 5537 5537 5537 5537 5536 5534 5531 5527 5524 5520 5517 5517 5518 5521 5526 5532 5540
5485 5486 5486 5486 5486 5487 5489 5490 5491 5494 5496 5499 5502 5504 5507 5509 5512 5514 5516 5517 5517 5518 5519 5520 5521 5523 5525 5525 5525 5524 5524 5522 5520 5517 5513 5510 5506 5504 5503 5505 5510 5516 5524
5475 5476 5476 5475 5476 5478 5480 5481 5482 5484 5486 5488 5490 5493 5495 5498 5500 5502 5503 5503 5504 5504 5506 5507 5508 5510 5511 5512 5512 5512 5512 5511 5510 5507 5502 5500 5495 5491 5490 5490 5494 5501 5509
5466 5466 5466 5466 5467 5469 5471 5472 5472 5474 5476 5477 5479 5481 5483 5485 5487 5489 5489 5489 5490 5490 5491 5492 5494 5496 5497 5498 5499 5499 5499 5499 5499 5496 5492 5490 5486 5480 5478 5477 5481 5486 5495
5456 5456 5457 5458 5459 5460 5462 5463 5463 5464 5465 5466 5468 5469 5470 5472 5474 5474 5474 5475 5475 5475 5476 5477 5479 5481 5483 5484 5485 5486 5486 5487 5488 5486 5482 5479 5477 5472 5468 5467 5469 5474 5482
5447 5447 5448 5448 5449 5450 5451 5452 5452 5453 5453 5454 5455 5457 5457 5458 5459 5459 5459 5460 5460 5460 5461 5462 5464 5465 5467 5469 5471 5472 5473 5474 5476 5476 5473 5470 5468 5464 5462 5460 5461 5465 5473